Temperature
17 16 16 15 15 14 14 13 13 12 12 12 11 11 11 10 10 10 10 9 9 9 8 8 8 8 7 7 7 6 6 5 5 4 4 3 3 3 2 2 1 1 0
16 16 16 15 15 14 14 13 13 12 12 11 11 11 11 10 10 10 9 9 9 9 8 8 8 8 7 7 6 6 5 5 4 4 3 3 2 2 1 1 0 -0 -1
16 15 15 15 14 14 13 13 12 12 11 11 11 11 10 10 10 10 9 9 9 8 8 8 8 7 7 6 6 6 5 4 4 3 3 2 2 1 0 0 -0 -1 -2
15 15 14 14 14 14 13 12 12 12 11 11 11 10 10 10 10 9 9 9 8 8 8 8 7 7 6 6 5 5 5 4 3 3 2 1 1 0 -0 -1 -1 -2 -2
15 14 14 14 14 13 12 12 11 11 11 11 10 10 10 10 9 9 9 8 8 8 8 7 7 6 6 5 5 5 4 3 3 2 1 1 -0 -1 -1 -2 -2 -3 -3
14 14 14 13 13 12 12 12 11 11 11 10 10 10 10 9 9 9 8 8 8 7 7 7 7 6 6 5 5 4 3 3 2 1 0 -0 -1 -2 -2 -3 -3 -4 -4
14 13 13 13 12 12 12 11 11 11 10 10 10 10 9 9 9 8 8 8 7 7 7 7 6 6 5 4 4 3 3 2 1 0 -0 -1 -2 -3 -3 -4 -4 -5 -5
13 13 13 12 12 11 11 11 11 11 10 10 10 10 9 9 9 8 8 7 7 7 6 6 6 5 4 4 3 3 2 1 1 -0 -1 -2 -3 -3 -4 -4 -5 -5 -5
12 12 12 12 12 11 11 11 11 10 10 10 9 9 9 9 8 8 7 7 7 6 6 5 5 4 4 3 3 2 2 1 -0 -1 -2 -2 -3 -4 -4 -5 -5 -5 -6
12 12 12 12 11 11 11 11 10 10 10 9 9 9 9 8 8 7 7 7 7 6 5 5 4 4 3 3 2 2 1 0 -1 -1 -2 -3 -3 -4 -4 -5 -6 -6 -7
11 11 11 11 11 11 11 10 10 10 9 9 9 8 8 8 7 7 7 7 6 6 5 4 4 3 2 2 1 1 0 -1 -1 -2 -2 -3 -4 -4 -5 -6 -6 -7 -8
11 11 11 11 11 10 10 10 10 9 9 9 8 8 7 7 7 7 6 6 6 5 5 4 3 3 2 1 1 -0 -1 -1 -2 -2 -3 -3 -4 -5 -5 -6 -7 -7 -8
11 11 11 10 10 10 10 10 9 9 9 8 8 8 7 7 6 6 6 5 5 4 4 3 3 2 1 1 0 -1 -1 -2 -2 -3 -3 -4 -5 -5 -6 -6 -7 -7 -8
10 10 10 10 10 10 9 9 9 9 8 8 8 8 7 6 6 6 5 5 4 4 3 3 2 1 1 0 -1 -1 -2 -2 -3 -4 -4 -5 -5 -6 -6 -7 -7 -7 -8
10 10 10 10 10 9 9 9 9 9 9 9 9 8 8 7 6 6 6 5 4 4 3 2 2 1 0 -0 -1 -2 -2 -3 -4 -4 -5 -5 -6 -6 -7 -7 -8 -8 -8
9 9 9 9 9 9 9 8 8 8 8 8 8 8 7 7 6 6 5 4 4 3 3 2 1 1 -0 -1 -1 -2 -3 -3 -4 -5 -5 -6 -6 -7 -7 -8 -8 -9 -9
9 9 9 9 9 9 9 8 7 7 7 7 7 7 6 6 6 5 4 3 3 2 2 2 1 0 -0 -1 -2 -2 -3 -4 -4 -5 -6 -6 -7 -7 -8 -8 -8 -9 -9
9 9 9 9 9 9 9 8 8 7 7 6 6 6 5 5 5 4 4 3 2 2 2 1 1 -0 -1 -2 -2 -3 -4 -4 -5 -5 -6 -6 -7 -7 -8 -8 -9 -9 -9
8 8 8 8 8 8 8 8 7 7 7 6 5 5 5 4 4 3 3 3 3 2 1 1 0 -1 -1 -2 -3 -3 -4 -5 -5 -6 -6 -7 -7 -8 -8 -9 -9 -9 -10
8 8 8 8 8 8 8 7 7 6 6 6 6 5 4 4 3 3 2 2 2 2 1 0 -0 -1 -2 -2 -3 -4 -4 -5 -6 -6 -7 -7 -8 -8 -9 -9 -9 -10 -10
7 7 7 7 7 7 7 7 7 6 6 6 5 5 5 4 4 3 3 2 2 1 1 -0 -1 -1 -2 -3 -3 -4 -5 -5 -6 -6 -7 -7 -8 -8 -9 -9 -9 -10 -10
7 7 6 6 7 7 7 6 6 6 6 5 5 4 4 3 3 3 2 2 1 1 -0 -1 -1 -2 -2 -3 -4 -4 -5 -6 -6 -7 -7 -8 -8 -9 -9 -9 -10 -10 -10
6 6 6 6 6 6 6 6 6 5 5 5 5 4 4 3 3 2 2 1 1 0 -1 -1 -2 -2 -3 -4 -4 -5 -5 -6 -6 -7 -7 -8 -8 -9 -9 -10 -10 -10 -10
5 5 5 5 5 5 5 5 5 5 5 4 4 4 3 3 2 2 1 1 0 -1 -1 -2 -2 -3 -3 -4 -4 -5 -6 -6 -7 -7 -8 -8 -9 -9 -9 -10 -10 -10 -10
5 5 5 5 5 5 5 5 4 4 4 4 4 3 3 2 2 1 1 0 -0 -1 -2 -2 -3 -3 -4 -4 -5 -5 -6 -6 -7 -7 -8 -8 -9 -9 -10 -10 -10 -10 -11
4 4 5 5 5 5 5 4 4 4 4 3 3 3 3 2 2 1 0 -0 -1 -1 -2 -2 -3 -3 -4 -5 -5 -6 -6 -7 -7 -8 -8 -8 -9 -9 -10 -10 -10 -11 -11
Wind_Speed
20 19 18 18 17 16 16 16 15 13 13 14 13 13 12 12 11 10 9 9 9 7 6 6 6 4 3 3 2 2 2 3 4 3 2 2 2 3 5 7 8 8 10
18 17 18 17 16 16 16 15 14 14 14 13 13 12 12 12 11 12 11 10 10 9 8 7 6 4 4 3 3 3 2 2 3 3 2 2 2 3 4 4 6 8 9
15 16 16 16 16 17 16 14 14 14 13 13 13 13 12 12 11 11 11 10 9 9 8 8 6 6 5 3 3 3 2 1 2 2 2 1 2 3 3 4 5 5 9
14 15 16 17 17 16 15 14 14 14 14 13 13 12 12 11 11 10 10 9 8 7 7 6 6 6 6 5 4 3 2 2 1 0 1 1 2 2 2 3 4 4 6
14 14 14 14 14 14 14 14 13 13 13 13 12 11 11 10 10 11 10 9 9 7 6 5 5 6 6 5 4 3 3 2 1 1 1 1 2 2 3 2 4 5 5
13 13 12 12 13 14 14 14 13 13 12 12 12 12 11 9 13 16 13 10 9 9 7 6 5 5 6 6 5 5 5 3 2 1 1 2 3 2 2 3 3 4 4
12 12 13 13 14 14 14 14 14 14 13 12 12 12 11 12 17 17 16 11 9 8 8 7 5 4 6 4 5 5 4 4 3 3 1 2 2 2 1 2 3 3 4
12 12 13 14 13 14 15 15 14 12 13 12 12 12 11 12 18 18 17 10 8 8 7 7 7 6 6 7 5 4 3 3 3 2 2 1 1 1 0 1 3 4 4
12 13 14 14 14 14 15 15 13 12 11 11 11 12 12 12 17 19 16 9 8 7 6 6 7 6 8 9 7 5 4 3 4 5 5 5 5 5 4 2 3 4 4
12 12 13 14 15 15 15 14 12 12 12 11 10 10 12 12 16 19 17 9 9 7 6 5 8 8 9 10 6 5 4 2 2 3 4 5 5 6 7 3 1 2 3
9 10 12 13 13 14 13 12 13 12 13 11 11 9 9 12 16 18 17 10 10 9 6 4 4 9 9 9 7 5 5 5 3 2 2 2 3 3 4 4 2 1 1
10 11 12 12 12 13 14 13 14 14 14 12 11 9 6 8 12 15 17 14 13 9 7 5 6 10 10 9 6 6 7 6 3 2 2 2 2 3 3 4 5 4 3
11 11 12 12 12 13 15 15 14 13 12 11 10 10 8 6 9 16 17 17 15 8 7 11 11 12 10 7 7 8 6 3 3 2 1 1 2 2 2 3 4 6 6
12 11 11 13 13 13 12 12 13 13 12 12 11 11 9 8 8 8 9 10 13 10 8 11 13 12 8 7 6 4 3 2 2 1 0 1 2 2 2 2 3 3 4
12 11 11 12 13 12 10 9 11 10 13 15 13 12 13 11 12 16 13 10 9 10 10 6 5 5 4 3 3 3 2 2 2 1 1 1 2 2 3 3 2 3 3
11 11 10 11 11 11 11 8 8 9 13 13 14 14 10 13 20 20 18 18 18 18 11 7 6 5 5 4 3 2 2 1 1 1 1 1 1 2 2 3 3 3 4
12 12 11 11 12 12 12 12 11 10 13 15 17 18 17 20 22 21 20 19 18 16 7 6 6 5 4 4 3 3 2 1 1 1 1 0 1 2 2 3 3 4 4
11 12 12 11 12 12 12 12 12 13 12 8 12 18 20 22 22 22 21 16 10 7 5 6 6 5 5 4 3 3 2 2 1 1 0 0 1 1 2 3 3 4 4
11 10 10 10 10 11 11 11 11 12 12 11 10 12 18 19 20 20 17 8 9 7 6 5 5 5 4 4 3 3 3 2 1 1 1 0 1 1 2 3 3 6 5
9 13 13 12 12 12 12 12 12 13 13 13 12 12 12 12 10 10 7 6 7 7 6 6 5 5 5 4 4 3 3 2 2 1 1 1 1 1 2 3 3 4 4
9 12 16 13 12 13 13 13 13 13 13 12 10 12 17 11 10 10 8 7 7 7 7 6 5 5 5 4 4 4 4 2 2 2 1 1 1 1 2 2 3 4 4
10 11 11 12 12 12 12 12 12 12 13 13 11 12 18 9 9 8 8 7 6 6 6 6 5 5 5 5 5 4 4 3 2 2 2 1 1 2 2 2 3 4 4
11 12 11 11 11 16 14 12 12 12 13 12 13 12 11 9 9 8 8 7 7 6 6 6 6 4 5 5 6 5 5 4 3 3 3 2 1 2 2 2 3 4 5
12 13 13 13 12 12 13 13 12 13 13 13 12 11 10 10 9 9 8 7 7 7 7 7 6 6 7 5 6 6 6 5 5 5 4 3 2 2 2 2 3 4 4
12 13 13 14 14 13 13 13 13 13 13 12 12 11 10 10 9 9 8 7 8 7 7 7 7 7 7 7 6 6 6 6 5 5 5 3 2 2 2 3 3 4 4
12 13 13 12 13 13 13 14 13 13 13 12 11 11 11 10 10 9 8 8 8 7 7 7 7 7 8 7 7 7 6 5 5 5 5 3 3 3 3 3 4 4 4
Wind_Direction
192 192 191 192 191 188 190 192 191 188 186 187 188 188 187 187 185 187 190 183 189 193 189 190 198 185 177 182 171 169 180 177 233 273 274 316 335 329 336 334 330 329 328
189 188 189 188 186 187 190 189 185 186 187 186 183 185 187 187 187 188 188 184 188 191 188 184 193 176 176 174 167 177 184 182 200 258 283 310 315 328 330 326 336 333 324
182 184 185 184 184 187 187 183 181 181 180 180 180 184 186 185 185 187 185 183 186 186 183 183 183 169 181 178 173 182 182 163 165 210 271 311 316 334 332 328 331 326 325
178 180 184 185 184 184 181 178 178 177 177 179 180 182 182 180 180 178 175 173 172 170 168 170 170 173 183 179 178 181 161 145 135 193 277 305 305 323 330 318 322 324 320
176 179 182 180 175 173 172 174 173 173 174 173 172 173 172 173 175 169 167 164 161 155 151 153 157 158 162 165 163 163 151 147 141 164 272 310 306 322 317 309 314 319 311
175 177 171 167 169 170 170 168 167 167 166 165 169 169 170 173 167 165 161 158 157 156 153 146 142 143 150 149 144 140 141 147 167 173 230 272 284 285 297 320 316 330 313
172 169 167 166 168 168 165 164 166 165 160 162 163 164 166 165 161 160 156 154 154 156 154 150 141 141 134 125 120 106 97 100 121 148 190 247 270 274 297 309 298 294 282
166 166 166 165 164 163 163 165 163 159 160 159 159 158 155 158 156 153 149 143 140 144 147 149 147 144 144 135 121 105 86 69 75 93 146 222 298 288 206 298 284 299 290
169 170 168 165 162 162 164 163 156 153 152 151 154 152 151 154 154 151 144 137 135 134 136 140 143 145 145 137 127 122 99 60 61 69 63 49 31 21 29 30 0 353 326
175 171 165 162 162 163 161 155 149 148 146 143 144 149 150 153 155 152 144 140 138 135 129 134 142 143 143 140 138 137 133 115 79 57 43 36 24 16 20 29 352 336 320
163 160 158 159 158 155 149 147 145 141 139 139 137 139 145 151 154 154 150 149 149 144 142 141 144 143 139 137 130 134 134 127 109 88 55 23 10 3 358 358 350 243 266
153 155 156 154 151 149 146 144 144 143 141 140 136 133 133 142 150 155 153 149 147 145 148 146 142 139 133 130 124 120 116 108 99 86 57 13 349 337 332 336 336 323 281
154 156 155 151 150 150 150 148 148 148 148 150 148 147 143 139 148 151 150 146 144 136 139 143 138 133 127 122 119 118 112 105 104 91 45 320 311 310 323 334 338 338 328
158 158 156 154 152 151 151 153 156 157 155 155 155 153 148 146 147 146 142 139 137 129 126 132 130 124 114 115 114 106 99 118 120 132 290 321 339 350 348 343 339 341 339
159 158 158 156 152 152 150 156 159 165 166 163 164 161 160 163 167 158 150 146 144 138 129 116 112 118 117 111 103 99 95 91 86 70 68 18 2 357 343 344 346 347 338
161 161 161 156 152 149 142 125 114 131 142 145 151 153 156 154 153 154 151 149 146 145 134 137 140 142 147 149 143 130 114 112 101 90 74 25 357 342 335 338 344 341 325
168 166 161 159 156 154 151 148 138 120 124 136 145 149 147 149 151 151 149 147 149 146 135 146 151 156 157 155 152 149 153 144 124 116 96 11 339 331 334 338 340 334 323
166 163 161 161 159 157 155 152 150 148 144 136 143 147 146 148 149 149 147 140 146 145 142 152 156 158 157 156 155 152 147 135 125 130 130 334 329 327 330 330 328 323 321
164 162 159 155 153 151 148 145 144 144 142 139 134 143 145 145 146 149 149 146 154 157 152 152 154 155 154 154 154 152 152 155 155 162 189 245 284 310 318 316 318 328 333
163 160 158 154 152 151 149 148 148 148 147 149 152 150 147 143 147 153 151 145 150 153 153 154 154 153 154 155 154 153 154 159 163 175 208 247 268 281 296 304 313 316 315
160 159 155 153 157 156 154 154 154 153 154 153 153 157 158 154 155 155 156 156 156 156 155 153 153 155 155 155 155 158 163 173 178 184 202 239 268 288 289 294 301 305 311
161 161 160 159 156 155 153 153 152 152 152 148 147 152 155 145 147 151 152 153 151 151 151 151 154 158 162 165 165 165 170 179 185 188 200 227 258 278 289 300 309 313 315
158 156 155 154 152 153 150 150 151 151 151 151 151 151 153 151 151 151 152 150 147 145 145 146 148 150 156 164 169 171 177 189 195 190 193 215 247 269 284 295 303 313 315
159 158 156 154 152 154 153 153 153 152 151 151 152 153 154 153 152 150 149 146 144 144 146 149 152 157 158 161 168 177 187 195 198 200 200 201 224 255 274 289 296 301 305
159 158 157 156 156 155 153 153 153 152 152 153 154 152 150 149 149 148 147 146 144 145 147 148 150 156 161 165 171 180 188 195 200 198 195 198 213 240 260 277 288 299 302
157 156 155 155 156 156 155 155 155 154 154 153 153 152 152 152 151 150 149 147 147 147 148 150 154 157 163 169 177 183 192 200 205 206 196 196 205 239 257 267 279 289 296
Height
1410 1416 1422 1428 1434 1440 1445 1451 1456 1461 1466 1471 1475 1479 1482 1486 1489 1492 1495 1497 1500 1502 1503 1504 1505 1506 1506 1506 1505 1504 1503 1502 1500 1499 1497 1495 1492 1490 1487 1484 1480 1477 1473
1404 1410 1416 1422 1428 1434 1439 1445 1451 1456 1461 1465 1470 1474 1478 1481 1484 1487 1490 1493 1495 1497 1499 1500 1501 1502 1502 1502 1501 1500 1499 1498 1497 1494 1493 1491 1488 1485 1482 1479 1475 1472 1468
1398 1404 1410 1416 1422 1428 1433 1439 1445 1451 1456 1460 1465 1469 1473 1476 1480 1483 1486 1488 1491 1493 1494 1496 1496 1497 1497 1497 1497 1496 1495 1494 1492 1490 1488 1486 1484 1481 1477 1474 1471 1468 1464
1392 1398 1404 1410 1416 1422 1428 1434 1440 1445 1450 1455 1460 1464 1469 1472 1476 1479 1482 1484 1486 1488 1490 1491 1492 1493 1493 1493 1493 1492 1491 1490 1488 1486 1484 1482 1480 1477 1473 1470 1466 1463 1460
1386 1392 1398 1404 1411 1417 1423 1429 1435 1441 1446 1451 1456 1460 1464 1468 1471 1474 1477 1480 1482 1484 1486 1487 1488 1489 1489 1489 1488 1488 1486 1485 1484 1482 1480 1478 1475 1473 1470 1466 1462 1459 1456
1382 1387 1393 1399 1406 1412 1418 1424 1431 1436 1442 1447 1451 1456 1460 1464 1467 1471 1474 1476 1478 1480 1482 1483 1484 1485 1485 1485 1484 1484 1483 1482 1480 1479 1477 1474 1472 1470 1467 1464 1460 1455 1451
1378 1383 1389 1395 1401 1407 1414 1420 1426 1431 1437 1442 1447 1452 1456 1460 1464 1467 1470 1472 1474 1476 1478 1479 1480 1481 1481 1481 1481 1480 1479 1478 1477 1476 1474 1471 1469 1467 1464 1461 1457 1454 1450
1374 1379 1385 1391 1397 1403 1409 1415 1421 1427 1432 1438 1443 1448 1452 1456 1460 1463 1466 1468 1471 1472 1474 1476 1477 1477 1478 1478 1477 1477 1476 1475 1473 1472 1471 1469 1466 1464 1461 1459 1455 1452 1448
1370 1375 1381 1387 1393 1399 1405 1411 1417 1423 1429 1434 1439 1444 1448 1452 1456 1459 1462 1465 1467 1469 1471 1472 1474 1474 1475 1474 1474 1474 1473 1472 1471 1469 1468 1466 1464 1461 1459 1456 1452 1448 1444
1366 1372 1377 1383 1389 1395 1401 1407 1414 1420 1426 1431 1436 1441 1445 1449 1453 1456 1459 1461 1463 1466 1468 1469 1470 1471 1471 1471 1471 1470 1470 1469 1468 1467 1465 1463 1461 1459 1456 1453 1449 1446 1442
1364 1370 1375 1381 1386 1392 1398 1405 1411 1417 1423 1428 1433 1438 1442 1446 1450 1453 1456 1458 1460 1462 1464 1466 1467 1468 1468 1468 1468 1468 1467 1466 1465 1464 1462 1461 1459 1456 1453 1451 1448 1445 1441
1363 1368 1373 1378 1384 1390 1396 1402 1408 1414 1419 1425 1430 1434 1439 1443 1446 1449 1452 1455 1458 1460 1462 1463 1464 1465 1465 1465 1465 1465 1464 1464 1463 1461 1460 1458 1456 1453 1451 1448 1446 1443 1440
1361 1366 1371 1376 1382 1387 1393 1398 1404 1410 1416 1421 1426 1430 1435 1439 1443 1446 1450 1452 1455 1457 1459 1460 1461 1462 1463 1463 1463 1462 1462 1461 1460 1459 1457 1456 1454 1451 1449 1446 1443 1441 1438
1358 1363 1368 1373 1379 1385 1390 1396 1401 1406 1411 1417 1421 1426 1431 1435 1439 1443 1446 1449 1452 1454 1456 1457 1459 1459 1460 1460 1460 1460 1460 1459 1458 1457 1455 1454 1452 1449 1447 1444 1441 1438 1435
1355 1360 1365 1370 1375 1381 1387 1392 1398 1404 1408 1413 1418 1423 1427 1431 1436 1440 1443 1446 1449 1451 1453 1455 1456 1457 1457 1458 1458 1458 1457 1457 1456 1455 1453 1451 1449 1447 1445 1442 1439 1436 1433
1352 1356 1361 1366 1372 1377 1383 1390 1397 1403 1408 1413 1418 1422 1427 1431 1435 1438 1442 1445 1447 1449 1451 1452 1453 1454 1455 1455 1455 1455 1455 1454 1454 1452 1451 1449 1447 1445 1443 1440 1438 1435 1432
1348 1353 1358 1363 1368 1374 1379 1385 1391 1398 1405 1411 1416 1420 1425 1429 1432 1436 1439 1442 1444 1446 1448 1449 1450 1451 1452 1453 1453 1453 1452 1452 1451 1450 1449 1447 1445 1443 1441 1439 1436 1434 1431
1346 1350 1354 1359 1365 1370 1376 1382 1387 1392 1398 1405 1412 1417 1422 1426 1430 1433 1436 1439 1441 1443 1445 1447 1448 1449 1450 1450 1450 1450 1450 1450 1449 1448 1447 1445 1444 1442 1440 1437 1435 1432 1429
1342 1346 1351 1356 1362 1368 1373 1379 1385 1390 1396 1401 1407 1413 1419 1423 1427 1431 1433 1436 1438 1440 1442 1444 1445 1446 1447 1448 1448 1448 1448 1447 1447 1446 1445 1443 1442 1440 1438 1436 1434 1431 1429
1339 1343 1348 1353 1358 1364 1370 1375 1381 1387 1392 1398 1403 1409 1414 1418 1422 1426 1429 1433 1436 1438 1440 1441 1443 1444 1445 1445 1445 1445 1445 1445 1444 1443 1442 1441 1440 1438 1437 1435 1433 1430 1428
1335 1340 1345 1350 1355 1360 1366 1372 1377 1383 1388 1394 1401 1406 1411 1415 1419 1423 1426 1430 1433 1435 1437 1439 1440 1441 1442 1442 1443 1443 1443 1442 1442 1441 1440 1439 1438 1437 1435 1433 1431 1429 1427
1331 1336 1341 1346 1351 1357 1363 1369 1375 1380 1386 1392 1398 1404 1409 1414 1417 1421 1425 1428 1431 1433 1435 1437 1438 1439 1439 1440 1440 1440 1440 1440 1439 1439 1438 1437 1436 1435 1433 1432 1430 1428 1425
1327 1332 1337 1343 1349 1355 1361 1366 1372 1378 1384 1389 1395 1400 1405 1410 1415 1419 1422 1426 1428 1430 1432 1434 1435 1436 1437 1438 1438 1438 1438 1438 1437 1437 1436 1435 1434 1433 1432 1430 1428 1426 1424
1324 1329 1334 1339 1345 1351 1357 1363 1369 1375 1381 1386 1392 1397 1402 1407 1412 1416 1420 1423 1425 1428 1429 1431 1433 1434 1435 1435 1435 1436 1436 1435 1435 1434 1434 1433 1432 1431 1430 1428 1427 1425 1423
1320 1325 1331 1336 1342 1348 1354 1360 1366 1372 1378 1383 1389 1394 1399 1404 1409 1413 1417 1420 1423 1425 1427 1429 1430 1431 1432 1433 1433 1433 1433 1433 1433 1432 1431 1431 1430 1429 1428 1426 1425 1423 1422
1317 1322 1328 1333 1339 1345 1350 1356 1363 1369 1375 1381 1386 1392 1397 1402 1406 1410 1414 1417 1420 1422 1424 1426 1428 1429 1430 1430 1431 1431 1431 1431 1430 1430 1429 1429 1428 1427 1426 1425 1423 1422 1421